Weather History for Nellis AFB, NV

Change the Weather History Date:

Wednesday, May 8, 2013

  Actual Average Record
Temperature  
Mean Temperature 66 °F -  
Max Temperature 76 °F 85 °F 98 °F (2001)
Min Temperature 57 °F 59 °F 55 °F (2003)
Cooling Degree Days 2    
Growing Degree Days 16 (Base 50)    
Moisture  
Dew Point 40 °F    
Average Humidity 40    
Maximum Humidity 57    
Minimum Humidity 25    
Precipitation  
Precipitation 0.00 in - - ()
Sea Level Pressure  
Sea Level Pressure 29.95 in    
Wind  
Wind Speed 4 mph (West)    
Max Wind Speed 18 mph    
Max Gust Speed 17 mph    
Visibility 10 miles    
Events      
Averages and records for this station are not official NWS values.
T = Trace of Precipitation, MM = Missing Value Source: NWS Daily Summary

Daily Weather History Graph

Daily Weather History Graph

Search for Another Location

Airport:

Trip Planner

Search our weather history database for the weather conditions in past years. The results will help you decide how hot, cold, wet, or windy it might be!

Date:

Astronomy

May. 08, 2013 Rise Set
Actual Time 5:39 AM PDT 7:34 PM PDT
Civil Twilight 5:11 AM PDT 8:02 PM PDT
Nautical Twilight 4:37 AM PDT 8:36 PM PDT
Astronomical Twilight 4:01 AM PDT 9:13 PM PDT
Moon 4:48 AM PDT (5/8) 6:37 PM PDT (5/8)
Length of Visible Light 14h 50m
Length of Day
13h 54m
Waning Crescent, 1% of the Moon is Illuminated
May 8
Waning Crescent
May 9
New
May 17
First Quarter
May 24
Full
May 31
Last Quarter

Hourly Weather History & Observations

Time (PDT) Temp. Dew Point Humidity Pressure Visibility Wind Dir Wind Speed Gust Speed Precip Events Conditions
12:58 AM 60.4 °F 40.8 °F 48% 29.90 in 10.0 mi Variable 1.2 mph - N/A   Clear
1:58 AM 57.9 °F 41.7 °F 55% 29.91 in 10.0 mi Calm Calm - N/A   Overcast
2:58 AM 58.6 °F 42.6 °F 55% 29.91 in 10.0 mi ESE 3.5 mph - N/A   Overcast
3:58 AM 59.0 °F 42.4 °F 54% 29.93 in 10.0 mi SW 4.6 mph - N/A   Overcast
4:58 AM 59.9 °F 41.4 °F 50% 29.93 in 10.0 mi North 4.6 mph - N/A   Overcast
5:58 AM 58.6 °F 43.3 °F 57% 29.95 in 10.0 mi ENE 5.8 mph - N/A   Overcast
6:58 AM 59.0 °F 43.5 °F 56% 29.97 in 10.0 mi Calm Calm - N/A   Mostly Cloudy
7:58 AM 61.5 °F 43.0 °F 51% 29.99 in 10.0 mi SSE 2.3 mph - N/A   Mostly Cloudy
8:58 AM 63.7 °F 41.9 °F 45% 30.04 in 10.0 mi East 3.5 mph - N/A   Overcast
9:58 AM 66.2 °F 39.9 °F 38% 30.01 in 10.0 mi ENE 4.6 mph - N/A   Mostly Cloudy
10:58 AM 68.2 °F 39.0 °F 34% 30.01 in 10.0 mi NE 3.5 mph - N/A   Overcast
11:58 AM 68.4 °F 38.5 °F 33% 30.01 in 9.0 mi Variable 3.5 mph - N/A   Scattered Clouds
12:58 PM 70.3 °F 37.9 °F 31% 29.99 in 10.0 mi Calm Calm - N/A   Clear
1:58 PM 73.2 °F 37.8 °F 28% 29.97 in 10.0 mi SSW 2.3 mph - N/A   Clear
2:58 PM 75.2 °F 37.9 °F 26% 29.94 in 10.0 mi North 3.5 mph - N/A   Clear
3:58 PM 76.3 °F 37.6 °F 25% 29.91 in 10.0 mi WSW 11.5 mph 17.3 mph N/A   Clear
4:58 PM 76.5 °F 37.6 °F 25% 29.90 in 10.0 mi WNW 13.8 mph - N/A   Clear
5:58 PM 73.9 °F 41.2 °F 31% 29.90 in 10.0 mi WNW 18.4 mph - N/A   Mostly Cloudy
6:58 PM 72.7 °F 39.4 °F 30% 29.90 in 10.0 mi WNW 13.8 mph - N/A   Clear
7:58 PM 71.6 °F 38.1 °F 30% 29.92 in 10.0 mi WSW 12.7 mph - N/A   Clear
8:58 PM 69.8 °F 40.6 °F 35% 29.94 in 10.0 mi WSW 6.9 mph - N/A   Clear
9:58 PM 67.6 °F 40.8 °F 38% 29.95 in 10.0 mi WSW 2.3 mph - N/A   Clear
10:58 PM 67.3 °F 39.7 °F 36% 29.94 in 10.0 mi WNW 6.9 mph - N/A   Clear
11:58 PM 65.8 °F 40.1 °F 39% 29.94 in 10.0 mi WSW 8.1 mph - N/A   Clear